CZ-4 DEB, 27492

Orbit data source: Space-Track

CZ-4 DEB, 27492 is space debris in SSO originally from a launch on Thu, 14 Oct 1999 UTC launched from the Taiyaun Space Center, China (TSC). Debris objects in space refer to the collection of defunct objects orbiting the Earth. Examples of debris include non-operational satellites, rocket bodies, and fragments generated from explosions, collisions, or faulty payload assembly.

Loading next visibility...
Identifier
27492, 1999-057MM
Orbit
SSO
Country
Flag of CNCN / PRC
Related business
Manufacturer
Unknown
Mission
Spacecraft
Bus & Motor
Unknown
Mass
Unknown
Launch date (UTC)
1999-10-14 (26 years ago)
Launch vehicle
Unknown
Launch site
Taiyaun Space Center, China (TSC)
Object type
Payload
Rocket body
Debris
Shape & HBR
Unknown shape, 0.1 m
Radar Cross Section
Small (<0.1 m²)

Expand to show TLE details & history
Last TLE update: 2 days ago

TLE from 2 days ago
0 CZ-4 DEB
1 27492U 99057MM  25296.08865630  .00005879  00000-0  12015-2 0  9994
2 27492  98.4209 345.3802 0079705  38.1981 322.4829 14.59238113288815
Epoch: 2025-10-23T02:07Z
TLE epoch observation values (Epoch: 2025-10-23T02:07:39.904Z)
Latitude
-0.00001°
Longitude
-78.28899°
Altitude
654.051 km
Speed
7.554 km/s
True Right ascension
23h 01m 31s
True Declination
0° 00' 00"
Sunlit
Object was in full shadow at epoch
Visualization orbit readout
Latitude
Unknown
Longitude
Unknown
Altitude
Unknown
Speed
Unknown
Apparent Right ascension
Unknown
Apparent Declination
Unknown
Sunlit
N/A
Visualization observer readout
Local Sidereal Time
10:36:18
Azimuth
Unknown
Elevation
Unknown
Doppler factor
Unknown
Orbital elements
Apogee altitude
749.086 km
Perigee altitude
636.369 km
Semi-major axis
7,070.864 km
Eccentricity
0.00797
Inclination
98.4209°
RAAN
345.3802°
Arg. of periapsis
38.1981°
True anomaly
321.92225°
Mean anomaly
322.4829°
Eccentric anomaly
322.20302°
Mean motion
3.65035 °/min
Orbital period
98.62 mins
BSTAR
0.0012015
Loading maneuver chart data...
Computing Atmospheric mass density...

Documentation

Showing up to 5 results
|